Location: Greenwich
(51.4790°N, 0.0090°E)
Time: 13:08:56
(UTC+01:00)

Altair - Pass Details

Date: 24 June 2025
Orbit: 1502 x 1682 km, 47.2° (Epoch: 19 July)

Event Time Altitude Azimuth Distance (km) Brightness Sun altitude
Rises 00:28:26 0° 248° (WSW) 4,636 9.9 -14.7°
Reaches altitude 10° 00:31:27 10° 246° (WSW) 3,664 9.3 -14.8°
Maximum altitude 00:40:31 65° 168° (SSE) 1,668 7.4 -15.0°
Drops below altitude 10° 00:49:54 10° 89° (E) 3,780 9.5 -15.1°
Sets 00:53:04 0° 87° (E) 4,790 10.1 -15.1°
